OBJECT G

Satellite information

Favourite Embed

Satellite Type and Status

UNKNOWNDECAYED

Key statistics

Satellite OBJECT G at a glance.

Uptime

322

Days in orbit

Revolutions

≈ 16.3

Per day

Orbit

SSO

Sun Synchronous Orbit

Inclination

97.3

Latest

Satellite identification and parameters

Extended collection of information and parameters for OBJECT G.

Object identification

Identified? True

Debris? False

Object name: OBJECT G

International designator: 2024-173G

Object number (NORAD): 61233

Object ID (CCSDS): 61233

Country: PEOPLES REPUBLIC OF CHINA (PRC)

Current information (Y/N): Y

RCS size: MEDIUM

Orbital parameters

Decay date: Aug. 12, 2025

Period: 88.252 minutes

Inclination: 97.3411 deg

SMA: 6566.126 km

Apoapsis: 197.126 km

Periapsis: 178.857 km

RAAN: 310.8795 deg

Eccentricy: 0.0013911

Argument of periapsis: 277.0557 deg

Mean anomaly: 82.9156 deg

Mean motion: 16.31694691 rev/day

Mean motion (dot): 0.06881735 rev/day2

B* drag term: 0.0013114 1/REarth

Two-line elements (TLE)

Creation date: Aug. 12, 2025, 6:14 p.m.

Reference frame: TEME

Reference center: EARTH

Epoch: Aug. 12, 2025, 12:17 a.m. UTC

TLE line 0: 0 OBJECT G

TLE line 1: 1 61233U 24173G 25224.01210325 .06881735 24646-5 13114-2 0 9998

TLE line 2: 2 61233 97.3411 310.8795 0013911 277.0557 82.9156 16.31694691 49823

Live tracking on map

Satellite OBJECT G has decayed and is no longer in orbit. No tracking available.

In-orbit conjunctions

Satellite OBJECT G has decayed and is no longer in orbit. No conjunctions available.

Associated space launch

Carried 8 satellites to a 500 km Sun-synchronous orbit: * Tianyi-41 * Luojia 4-01 * Fudan-1 * Tianyan-15 * Jitianxing A-01 * Xingshidai-15/21/22

OBJECT G was lifted into orbit during the mission ‘Smart Dragon 3 | 8 satellites’, on board a Smart Dragon 3 space rocket.

The launch took place on Sept. 24, 2024, 2:31 a.m. from Haiyang Spaceport.

For more information about the launch, click the button.

Launch to space Smart Dragon 3 | 8 satellites
Smart Dragon 3 | 8 satellites

Agency: N/A

Status: Launch Successful

Launch date: Sept. 24, 2024, 2:31 a.m. UTC

Rocket: Smart Dragon 3

Launch pad: Haiyang Spaceport

Location: Haiyang Oriental Spaceport

...

Latest news about this satellite

News about space launch
Launch Roundup: NASA Crew-9 flies half-empty, Starlink and Chinese launches continue

NASA and SpaceX’s launch of the Crew-9 mission was center stage this week. The launch of two new International Space Station crew members took place on Saturday from the recently crew-certified Space Launch Complex 40 (SLC-40) at the Cape Canaveral Space ...

News about space launch
Jielong-3 sea launch sends 8 satellites into orbit

HELSINKI — China launched its fourth Jielong-3 solid rocket from a sea platform late Monday, putting eight remote sensing satellites into sun-synchronous orbit. The fourth Jielong-3 (Smart Dragon-3) lifted off […]


Newsletter sign-up

Weekly statistics, charts and insights to help you stay on top of the space industry.